User: anonymous   Login
Location: Peebles
(55.6412°N, 3.1714°W)
Time: 03:48:30
(UTC+00:00)
Language:

SPOT 3 Rocket - Orbit

View from above orbital plane
View from above orbital plane
View from above satellite
View from above satellite

Ground track
Ground track

The orbit data is extracted from the following two-line orbital elements,

1 22830U 93061H   21333.61869274  .00000018  00000-0  23491-4 0  9991
2 22830  98.6935  31.5642 0010613 201.5494 158.5243 14.31500629470677
Epoch (UTC): 29 November 2021 14:50:55
Eccentricity: 0.0010613
inclination: 98.6935°
perigee height: 779 km
apogee height: 794 km
right ascension of ascending node: 31.5642°
argument of perigee: 201.5494°
revolutions per day: 14.31500629
mean anomaly at epoch: 158.5243°
orbit number at epoch: 47067

The dashed part of the orbit path shows where the satellite is in the earth's shadow,  

DLR